Regional Weather Roundup
Issued by NWS Grand Forks, ND

Home | Current Version | Previous Version | Graphics & Text | Print | Product List | Glossary On
Versions: 1 2 3 4 5 6 7 8 9 10 11 12 13 14 15 16 17 18 19 20 21 22 23 24 25 26 27 28 29 30 31 32 33 34 35 36 37 38 39 40 41 42 43 44 45 46 47 48 49 50
000
ASUS43 KFGF 222210
RWRFGF
PRAIRIE TO PINES  WEATHER ROUNDUP
NATIONAL WEATHER SERVICE EASTERN NORTH DAKOTA/GRAND FORKS ND
500 PM CDT TUE JUL 22 2014

 **SATELLITE DATA USED TO AUGMENT SKY COVER AT AUTOMATED STATIONS**
 *****  WEATHER ACROSS EASTERN NORTH DAKOTA  *****

CITY           SKY/WX    TMP DP  RH WIND       PRES   REMARKS
GRAND FORKS    MOSUNNY   77  59  53 N12       30.16S
GRAND FRKS AFB SUNNY     76  59  55 N12       30.18S
GRAND FRKS NWS   N/A     77 N/A N/A VRB15       N/A
DEVILS LAKE    PTSUNNY   75  57  53 NE7       30.19S
FARGO          SUNNY     79  57  46 N20       30.16R
WAHPETON ARPT  CLEAR     79  54  41 N13G23    30.16S
$$

 ***** WEATHER ACROSS CENTRAL AND WESTERN NORTH DAKOTA  *****

CITY           SKY/WX    TMP DP  RH WIND       PRES   REMARKS
BISMARCK       MOSUNNY   82  59  45 VRB6      30.20F
MINOT          MOSUNNY   76  60  57 VRB3      30.19F
JAMESTOWN      MOSUNNY   77  58  51 VRB6      30.19S
MINOT AFB      MOSUNNY   77  60  57 NE7       30.19F
GARRISON         N/A     78  62  57 SW3       30.20S
WILLISTON      SUNNY     87  52  29 VRB7      30.17S
DICKINSON      SUNNY     77  61  57 E9        30.20F
HETTINGER      PTSUNNY   81  61  50 E12       30.21F
$$

 *****  OTHER AIRPORT OBSERVATIONS IN OUR AREA  *****

CITY           SKY/WX    TMP DP  RH WIND       PRES   REMARKS
WALHALLA       FAIR      75  54  46 N13         N/A
GRAFTON AIRPOR FAIR      75  57  53 N12       30.17S
VALLEY CITY AR FAIR      77  57  50 N9        30.19S
CANDO          FAIR      75  57  53 NW3       30.21S
CAVALIER APRT  FAIR      75  55  50 N12       30.18S
GWINNER        CLEAR     81  57  44 N12       30.19S
ROLLA            N/A     75  57  53 N6        30.23S
 ***** THE ABOVE OBSERVATIONS ARE NON NWS ARE NOT QUALITY
       CONTROLLED AND MAY MIS-REPORT RAIN FOR SNOW...
$$

  *****  WEATHER ACROSS NORTHERN MINNESOTA  *****

CITY           SKY/WX    TMP DP  RH WIND       PRES   REMARKS
FLAG ISLAND    MOSUNNY   73  52  46 NW15      30.11S
WARROAD        NOT AVBL
ROSEAU         MOSUNNY   75  55  50 N12       30.14S
HALLOCK        SUNNY     75  52  43 NW12G18   30.16S
THF RVR FALLS  PTSUNNY   73  55  53 NW13G18   30.16S
BAUDETTE       SUNNY     75  51  43 NW13      30.13S
WASKISH        PTSUNNY   73  55  53 N6        30.13R
CROOKSTON      SUNNY     75  57  53 N14G21    30.17S
$$
  *****  WEATHER ACROSS CENTRAL AND WEST MINNESOTA  *****

CITY           SKY/WX    TMP DP  RH WIND       PRES   REMARKS
FOSSTON        SUNNY     75  55  50 NW12      30.17R
BEMIDJI        MOSUNNY   75  52  44 NW15G22   30.14R
PARK RAPIDS    SUNNY     76  49  38 NW21G26   30.13R
ELBOW LAKE     FAIR      75  55  50 N17G24    30.15R
WADENA         SUNNY     75  54  46 N16G23    30.13R
DETROIT LAKES  SUNNY     73  55  53 N15G24    30.17R
MOORHEAD       SUNNY     77  63  61 N14       30.17R
FERGUS FALLS   SUNNY     75  52  43 N13G20    30.15R
MORRIS MN      SUNNY     79  57  47 N18       30.15R
STAPLES        MOSUNNY   77  50  38 N10G20    30.12R
$$
  *****  WEATHER ELSEWHERE ACROSS MINNESOTA  *****

CITY           SKY/WX    TMP DP  RH WIND       PRES   REMARKS
DULUTH         MOSUNNY   78  56  46 NW13G21   30.05R
INTRNTL FALLS  MOSUNNY   76  54  46 NW10      30.09R
ELY            MOSUNNY   73  52  46 N7        30.07R
CLOQUET        MOSUNNY   79  54  41 NW15      30.06R
WHEATON        SUNNY     75  57  53 N12       30.18R
BRAINERD       MOSUNNY   77  53  43 N14       30.10R
HIBBING        MOSUNNY   76  54  46 N13       30.08R
ALEXANDRIA     MOSUNNY   77  52  41 N16       30.16R
SAINT CLOUD    MOSUNNY   81  52  36 N13G20    30.08R
MINNEAPOLIS    MOSUNNY   86  56  35 N12       30.05R
$$

  *****  WEATHER ACROSS SOUTH DAKOTA  *****

CITY           SKY/WX    TMP DP  RH WIND       PRES   REMARKS
SIOUX FALLS    MOSUNNY   82  62  50 NE8       30.17R
BROOKINGS      NOT AVBL
WATERTOWN      SUNNY     79  56  45 NE15G21   30.19R
HURON          SUNNY     83  59  44 N12       30.17S
SISSETON         N/A     80  59  48 NE10      30.17R
ABERDEEN       MOSUNNY   80  61  52 NE10      30.19R
MITCHELL       SUNNY     84  61  45 MISG      30.17F
PIERRE         SUNNY     86  57  37 SE8       30.17S
MOBRIDGE       SUNNY     84  59  42 VRB5      30.17S
RAPID CITY     SUNNY     80  64  58 SE8       30.21F
$$

  *****  SOME WEATHER IN NEARBY STATES *****

CITY           SKY/WX    TMP DP  RH WIND       PRES   REMARKS
GLASGOW MT     PTSUNNY   84  50  30 N6        30.17S
GREAT FALLS MT SUNNY     86  48  26 NE9       30.15F
CHEYENNE WY    SUNNY     82  49  31 SE3       30.37S
SCOTTSBLUFF NE SUNNY     92  59  33 E14       30.21F HX  91
OMAHA NE       MOSUNNY   90  69  50 NE14      30.06S HX  94
DES MOINES IA  MOSUNNY   91  74  57 N12       30.01S HX 100
DAVENPORT IA   PTSUNNY   86  78  77 W9        29.97R HX  98
CHICAGO IL     CLOUDY    88  71  57 W10       29.94R HX  94
EAU CLAIRE WI  MOSUNNY   83  62  49 N10       30.01R
LA CROSSE WI   SUNNY     88  66  48 NW15      29.97S HX  90
$$

  *****  SOME NATIONAL WEATHER *****

CITY           SKY/WX    TMP DP  RH WIND       PRES   REMARKS
LA GUARDIA NY  MOSUNNY   83  65  54 S16G22    30.06S
RALEIGH NC     PTSUNNY   85  71  63 VRB3      30.10S HX  90
ATLANTA GA     PTSUNNY   82  70  66 E8        30.07F
NEW ORLEANS LA PTSUNNY   86  73  65 S12       30.00R HX  93
OKLAHOMA CITY  MOSUNNY   96  68  39 CALM      30.06F HX 101
ALBUQUERQUE NM PTSUNNY   92  48  22 E31G40    30.22S
SALT LAKE CITY MOSUNNY   97  34  11 NE9       30.13F HX  91
LOS ANGELES CA MOSUNNY   76  59  55 W18       30.04F
BOISE ID       CLOUDY    92  46  20 N9        30.08F
SEATTLE WA     DRIZZLE   62  57  83 W5        30.10S
$$

*** WEATHER ACROSS MANITOBA...SASKATCHEWAN AND ONTARIO ***
                ***ONTARIO***

CITY           SKY/WX    TMP DP  RH WIND       PRES   REMARKS
GERALDTON      PTSUNNY   59  57  94 NW14      29.95
THUNDER BAY    PTSUNNY   68  55  64 MISG      30.01R
SIOUX LOOKOUT  PTSUNNY   66  54  63 N8        30.08R
TORONTO        MOSUNNY   82  63  51 S13       29.97F
BIG TROUT LK   PTSUNNY   68  41  37 N9G18     30.08R
PICKLE LAKE    CLOUDY    66  46  48 NW5       30.05R
DRYDEN         PTSUNNY   70  54  56 N9G18     30.09R
KENORA         PTSUNNY   73  54  49 NW14G23   30.12R
$$
                *** MANITOBA***

CITY           SKY/WX    TMP DP  RH WIND       PRES   REMARKS
BRANDON        NOT AVBL
DAUPHIN        MOSUNNY   73  59  60 NE14      30.22R
ISLAND LAKE    MOSUNNY   68  46  45 N9        30.18R
PILOT MOUND      N/A     73  54  49 N5          N/A
THE PAS        MOSUNNY   72  46  40 CALM      30.22S
THOMPSON       PTSUNNY   70  52  52 W6        30.18F
WINNIPEG       MOSUNNY   77  54  44 NW15G21   30.17S
LYNN LAKE      SUNNY     72  43  35 W7        30.21S
CHURCHILL      MOSUNNY   66  52  59 E12       30.06R
GILLAM         MOSUNNY   68  48  49 W7        30.14S
$$
                ***SASKATCHEWAN***

CITY           SKY/WX    TMP DP  RH WIND       PRES   REMARKS
ESTEVAN        PTSUNNY   77  61  57 E9        30.22R
KINDERSLEY     PTSUNNY   75  57  53 S12       30.21F
LLOYDMINSTER   PTSUNNY   73  54  49 SE8       30.21S
PRINCE ALBERT  PTSUNNY   75  50  41 S5        30.23F
REGINA         PTSUNNY   79  50  36 VRB9      30.23F
YORKTON        SUNNY     75  52  43 N8        30.24S
N. BATTLEFORD  PTSUNNY   75  57  53 SE8       30.23F
LA RONGE       MOSUNNY   77  46  33 SE8       30.21S
SASKATOON      PTSUNNY   77  52  41 VRB5      30.24F
SWIFT CURRENT  MOSUNNY   73  55  53 E10       30.22F
$$
NOTE: THESE ARE AUTOMATED STATIONS WITH LIMITED QUALITY CONTROL
      "FAIR" INDICATES FEW OR NO CLOUDS BELOW 12,000 FEET WITH NO
      SIGNIFICANT WEATHER AND/OR OBSTRUCTIONS TO VISIBILITY.
      SKY/WX - SKY CONDITION AND SIGNIFICANT WEATHER.
      TMP - AIR TEMPERATURE.    DP   - DEWPOINT TEMPERATURE.
      RH  - RELATIVE HUMIDITY.  PRES - PRESSURE.
      HX  - HEAT INDEX.         WCI  - WIND CHILL INDEX.
$


USA.gov is the U.S. government's official web portal to all federal, state and local government web resources and services.